This demonstration page uses our WeatherBlox Daily Observations layout. Learn more.

Left ArrowRight Arrow

41.55636, -103.73856

Hourly Observations for July 11, 2018

Temp ( °F °C ) Dew Point ( °F °C ) Humidity (%) Winds ( mph kmh ) Pressure ( in mb ) Visibility ( mi km ) Precip ( " mm )
12:58 am 00:58 Clear 67 19.7 50 9.9 53 53 SSW 12 19 29.95 1014 10 16 N/A
1:58 am 01:58 Clear 66 19 50 10 56 56 SSW 8 13 29.94 1014 10 16 N/A
2:58 am 02:58 Clear 64 18 52 11 64 64 SSW 9 15 29.93 1013 10 16 N/A
3:58 am 03:58 Clear 62 16.9 51 10.7 67 67 SSW 9 15 29.93 1014 10 16 N/A
4:58 am 04:58 Clear 60 15.7 51 10.6 72 72 SW 9 15 29.92 1013 10 16 N/A
5:58 am 05:58 Sunny 59 15 50 10 72 72 WSW 7 11 29.93 1014 10 16 N/A
6:58 am 06:58 Sunny 64 17.8 52 11 65 65 WSW 7 11 29.92 1013 10 16 N/A
7:58 am 07:58 Sunny 72 22 52 11 50 50 WSW 8 13 29.92 1013 10 16 N/A
8:58 am 08:58 Sunny 77 25 52 11 42 42 SW 7 11 29.93 1014 10 16 N/A
9:58 am 09:58 Sunny 82 27.6 52 10.9 35 35 N N/A 29.94 1014 10 16 N/A
10:58 am 10:58 Sunny 85 29.5 49 9.7 29 29 N N/A 29.95 1014 10 16 N/A
11:58 am 11:58 Sunny 88 31 46 8 24 24 S 8 13 29.94 1014 10 16 N/A
12:58 pm 12:58 Sunny 90 32.1 46 7.5 22 22 SSW 12 19 29.92 1013 10 16 N/A
1:58 pm 13:58 Sunny 91 33 41 5.2 17 17 S 10 17 29.91 1013 10 16 N/A
2:58 pm 14:58 Sunny 92 33.5 43 6.2 18 18 S 9 15 29.90 1012 10 16 N/A
3:58 pm 15:58 Sunny 92 33.5 40 4.4 16 16 SSE 8 13 29.88 1012 10 16 N/A
4:58 pm 16:58 Sunny 92 33.5 42 5.5 17 17 SE 8 13 29.86 1011 10 16 N/A
5:58 pm 17:58 Sunny 91 32.9 39 3.7 16 16 SSE 9 15 29.87 1011 10 16 N/A
6:58 pm 18:58 Sunny 89 31.4 44 6.4 21 21 SE 9 15 29.87 1011 10 16 N/A
7:58 pm 19:58 Sunny 79 26.2 45 7.4 30 30 SE 9 15 29.90 1013 10 16 N/A
8:58 pm 20:58 Clear 75 23.8 47 8.5 38 38 SSE 10 17 29.91 1013 10 16 N/A
9:58 pm 21:58 Clear 76 24.4 50 10.1 41 41 S 13 20 29.93 1013 10 16 N/A
10:58 pm 22:58 Clear 76 24.6 52 11.3 43 43 S 16 26 29.92 1013 10 16 N/A
11:58 pm 23:58 Clear 73 23 53 11.5 48 48 S 13 20 29.94 1014 10 16 N/A

Powered by AerisWeather